sat.trackr.live / text

‹ back to catalog

YAOGAN-3

NORAD 32289 · 2007-055A

PAYLOAD ACTIVE UNKNOWN

§ Identity

Operator
Country
PRC
Launch date
2007-11-11
Launch site
TAISC
Launch vehicle
Mass (kg)
RCS (m²)
5.13

Purposes: earth_obs

External: N2YO · Heavens-Above · Gunter

§ Orbital elements

Epoch: 2026-09-19T23:00:02.990016Z

Period
96.57 min
Inclination
97.8110°
Eccentricity
0.0001738
Mean motion
14.91070571 rev/d
Perigee alt
593.4 km
Apogee alt
595.8 km
Semi-major
6,972.7 km
B*
1.0635e-4
RAAN
291.8945°
Arg perigee
89.2659°
Mean anomaly
270.8758°
Rev number
1,999

§ Raw data

YAOGAN-31 32289U 07055A   26262.95836794  .00000997  00000+0  10635-3 0  99922 32289  97.8110 291.8945 0001738  89.2659 270.8758 14.91070571 19998

JSON: /api/v1/satellites/32289 · /tle

For live sub-satellite position, see the globe view (requires WebGL).

§ Visibility from observer

Set your observer location to see the next 7 days of passes ≥ 10°. The values pass through the URL so the page stays shareable.

No JS? Fill the form by hand. The geolocation button needs JavaScript.

§ Radio — SatNOGS DB

ModeDescriptionDownlinkUplink
FM S-band telemetry 2.296 GHz
FM S-band telemetry 2.213 GHz

2 transmitters · refreshed weekly from db.satnogs.org